[[{"header":{"parameterUnit":"m.s-1","parameterCategory":1,"la1":30.2991,"la2":30.254,"lo1":-89.0895,"lo2":-89.0444,"dy":0.0017,"dx":0.0017,"nx":28,"ny":28,"refTime":"2025-12-04T03:00:00:Z","depth":0,"parameterNumber":2,"parameterNumberName":"U-component_of_WINDS"},"data":[0,0,0,0,0,0,0,0,0,0,0,0,0,0,0,0,0,0,0,0,0,0,0,0,0,0,0,0,0,0,0,0,0,0,0,0,0,0,0,0,0,0,0,0,0,0,0,0,0,0,0,0,0,0,0,0,0,0,-6.2368,-6.2369,0,-6.2484,-6.2486,-6.2487,-6.2312,-6.2306,-6.23,-6.2294,-6.2414,-6.2423,-6.2431,0,0,0,0,0,0,0,0,0,0,0,0,0,-6.1995,-6.2003,-6.2368,-6.237,-6.2371,-6.2484,-6.2486,-6.2487,-6.2313,-6.2306,-6.2298,-6.2292,-6.2411,-6.2422,-6.2432,0,0,0,0,0,0,0,0,0,0,0,0,0,-6.2139,-6.2005,-6.2368,-6.2298,-6.2293,-6.2484,-6.2486,-6.2488,-6.2315,-6.2306,-6.2297,-6.2288,-6.2408,-6.242,-6.2434,-6.2699,0,0,-6.2474,-6.248,0,0,0,0,0,0,0,0,-6.2131,-6.2153,-6.2307,-6.2303,-6.2298,-6.2374,-6.2398,-6.2558,-6.2317,-6.2307,-6.2294,-6.2284,-6.2408,-6.2421,-6.2463,-6.2704,-6.2709,-6.2475,-6.2484,-6.2489,-6.2493,0,0,0,0,0,0,0,-6.2121,-6.2147,-6.2414,-6.2309,-6.2304,-6.226,-6.2271,-6.2427,-6.2407,-6.2307,-6.2294,-6.231,-6.2404,-6.245,-6.2464,-6.2711,-6.2475,-6.2487,-6.2495,-6.25,-6.3174,-6.3184,0,0,0,0,0,0,-6.212,-6.2139,-6.241,-6.2417,-6.219,-6.2274,-6.2286,-6.2359,-6.2405,-6.2403,-6.2318,-6.2302,-6.2432,-6.2449,-6.2468,-6.2781,-6.2489,-6.2502,-6.2509,-6.3165,-6.3177,-6.3187,0,0,0,0,0,0,-6.2112,-6.2145,-6.2406,-6.2275,-6.2305,-6.2291,-6.2374,-6.2366,-6.2412,-6.2414,-6.2409,-6.2369,-6.2426,-6.2449,-6.2642,-6.2783,-6.2508,-6.252,-6.3153,-6.3168,-6.3182,-6.341,0,0,0,0,0,0,-6.2102,-6.2144,-6.2245,-6.2279,-6.2313,-6.2579,-6.2383,-6.2375,-6.2436,-6.2415,-6.2461,-6.2459,-6.242,-6.2623,-6.2656,-6.2796,-6.253,-6.314,-6.316,-6.3177,-6.339,-6.3431,-6.3466,0,0,0,0,0,-6.209,-6.2305,-6.2251,-6.2285,-6.2439,-6.2588,-6.2607,-6.2558,-6.2448,-6.2549,-6.2549,-6.2458,-6.2762,-6.2645,-6.2679,-6.2826,-6.3131,-6.3154,-6.3176,-6.3373,-6.3423,-6.3465,0,0,0,0,0,0,-6.2289,-6.2308,-6.2249,-6.2481,-6.2534,-6.2558,-6.2684,-6.2612,-6.2698,-6.2675,-6.261,-6.2622,-6.2829,-6.2846,-6.2715,-6.3084,-6.2928,-6.2958,-6.3066,-6.3113,-6.315,-6.3143,-6.2541,0,0,0,0,0,-6.236,-6.2479,-6.2489,-6.2694,-6.2723,-6.27,-6.2763,-6.272,-6.2772,-6.2794,-6.2808,-6.2863,-6.2969,-6.3042,-6.3141,-6.339,-6.3398,-6.3508,-6.3546,-6.3577,-6.3605,-6.3737,-6.3787,-6.3261,-6.3261,-6.326,0,0,-6.2508,-6.2533,-6.2613,-6.2734,-6.277,-6.2895,-6.272,-6.286,-6.2952,-6.2815,-6.2998,-6.3011,-6.3067,-6.3289,-6.3388,-6.331,-6.3751,-6.3606,-6.3631,-6.3641,-6.3765,-6.3815,-6.386,-6.3276,-6.3273,-6.3271,0,0,-6.2841,-6.2873,-6.3046,-6.3085,-6.3141,-6.3124,-6.3166,-6.32,-6.3203,-6.3386,-6.3285,-6.3393,-6.358,-6.3624,-6.367,-6.4019,-6.3938,-6.4052,-6.4252,-6.4382,-6.4423,-6.4459,-6.4584,-6.4629,-6.4079,-6.408,-6.408,0,-6.3019,-6.3203,-6.3144,-6.3291,-6.3347,-6.3228,-6.3403,-6.3443,-6.353,-6.3571,-6.3482,-6.3713,-6.3742,-6.3973,-6.4058,-6.4099,-6.4145,-6.4048,-6.4422,-6.4458,-6.4491,-6.4609,-6.4656,-6.4094,-6.4092,-6.4091,-6.4089,0,-6.3418,-6.3547,-6.368,-6.3766,-6.3837,-6.3997,-6.3962,-6.4041,-6.3991,-6.3983,-6.417,-6.42,-6.4303,-6.4354,-6.4307,-6.4579,-6.4528,-6.4432,-6.4274,-6.4556,-6.4665,-6.471,-6.4113,-6.4108,-6.4104,-6.4101,0,0,-6.3883,-6.3932,-6.3982,-6.4019,-6.4071,-6.417,-6.4324,-6.4424,-6.4492,-6.4555,-6.4683,-6.4842,-6.4753,-6.4806,-6.4762,-6.4877,-6.515,-6.4766,-6.4766,-6.4837,-6.5451,-6.5524,-6.5578,-6.5096,-6.5104,-6.5111,-6.5446,0,-6.4216,-6.4482,-6.4433,-6.4692,-6.4811,-6.4698,-6.4832,-6.4878,-6.4874,-6.4973,-6.4968,-6.5083,-6.4956,-6.4987,-6.5095,-6.5095,-6.5273,-6.5069,-6.5215,-6.5221,-6.5206,-6.5635,-6.5713,-6.6028,-6.5489,-6.5496,-6.5501,0,-6.4641,-6.4719,-6.499,-6.5022,-6.507,-6.5191,-6.5278,-6.5374,-6.5424,-6.5413,-6.5472,-6.5407,-6.5559,-6.5398,-6.5607,-6.547,-6.5526,-6.5534,-6.5545,-6.5558,-6.5379,-6.566,-6.6128,-6.6176,-6.5568,-6.5563,-6.5558,0,-6.4954,-6.5126,-6.531,-6.5345,-6.5387,-6.5475,-6.5496,-6.5537,-6.56,-6.5675,-6.5715,-6.5808,-6.5859,-6.5932,-6.5893,-6.5779,-6.611,-6.5945,-6.6105,-6.6107,-6.6181,-6.6177,-6.6665,-6.6216,-6.6215,-6.6214,-6.6213,0,-6.5331,-6.5502,-6.5451,-6.5565,-6.5752,-6.5693,-6.588,-6.5887,-6.5924,-6.6037,-6.5944,-6.6052,-6.5994,-6.6097,-6.6068,-6.6246,-6.6269,-6.6264,-6.6255,-6.6274,-6.6275,-6.6311,-6.6288,-6.6227,-6.6224,-6.6222,-6.6219,0,-6.5713,-6.5686,-6.588,-6.5903,-6.5912,-6.605,-6.6069,-6.6175,-6.6162,-6.6306,-6.6337,-6.6318,-6.6435,-6.6403,-6.6529,-6.6509,-6.6734,-6.6696,-6.6718,-6.6709,-6.6871,-6.6857,-6.7401,-6.7469,-6.6975,-6.6979,-6.6983,0,-6.5957,-6.6085,-6.6122,-6.6191,-6.6219,-6.6331,-6.6394,-6.634,-6.6409,-6.6474,-6.6573,-6.6681,-6.6765,-6.6956,-6.6954,-6.705,-6.7014,-6.7198,-6.7028,-6.7043,-6.7018,-6.7011,-6.7024,-6.7233,-6.7238,-6.7243,-6.7247,0,-6.6393,-6.6372,-6.6467,-6.6557,-6.6635,-6.6703,-6.6763,-6.6824,-6.6774,-6.6857,-6.6975,-6.704,-6.7168,-6.7277,-6.7365,-6.7385,-6.731,-6.73,-6.7342,-6.7363,-6.7371,-6.737,-6.6812,-6.7288,-6.7284,-6.7281,-6.7279,-6.7277,-6.6713,-6.6822,-6.6864,-6.6972,-6.7011,-6.7069,-6.7169,-6.7169,-6.7266,-6.7366,-6.7328,-6.7463,-6.7508,-6.7617,-6.765,-6.7755,-6.7685,-6.7746,-6.7761,-6.7778,-6.7798,-6.7353,-6.777,-6.7769,-6.7768,-6.7767,-6.7766,0,-6.7144,-6.7165,-6.7265,-6.7351,-6.7436,-6.7355,-6.7416,-6.7493,-6.7613,-6.7661,-6.7745,-6.788,-6.7984,-6.799,-6.8087,-6.817,-6.8137,-6.8198,-6.8192,-6.8198,-6.7855,-6.7809,-6.8223,-6.8223,-6.8223,-6.8222,-6.8222,-6.8222,-6.7379,-6.7558,-6.7542,-6.774,-6.7759,-6.7891,-6.7933,-6.7985,-6.8023,-6.8178,-6.8264,-6.8266,-6.8297,-6.8396,-6.8488,-6.8487,-6.8527,-6.8602,-6.8588,-6.8268,-6.8222,-6.8179,-6.8135,-6.8611,-6.8611,-6.8922,-6.8925,-6.8927]},{"header":{"parameterUnit":"m.s-1","parameterCategory":1,"la1":30.2991,"la2":30.254,"lo1":-89.0895,"lo2":-89.0444,"dy":0.0017,"dx":0.0017,"nx":28,"ny":28,"refTime":"2025-12-04T03:00:00:Z","depth":0,"parameterNumber":3,"parameterNumberName":"V-component_of_WINDS"},"data":[0,0,0,0,0,0,0,0,0,0,0,0,0,0,0,0,0,0,0,0,0,0,0,0,0,0,0,0,0,0,0,0,0,0,0,0,0,0,0,0,0,0,0,0,0,0,0,0,0,0,0,0,0,0,0,0,0,0,-1.9823,-1.9823,0,-1.9776,-1.9775,-1.9774,-1.9813,-1.9815,-1.9817,-1.9818,-1.9763,-1.976,-1.9757,0,0,0,0,0,0,0,0,0,0,0,0,0,-1.9941,-1.9939,-1.9823,-1.9823,-1.9822,-1.9776,-1.9775,-1.9774,-1.9813,-1.9815,-1.9817,-1.9819,-1.9764,-1.9761,-1.9757,0,0,0,0,0,0,0,0,0,0,0,0,0,-1.9891,-1.9938,-1.9823,-1.9836,-1.9836,-1.9776,-1.9775,-1.9774,-1.9813,-1.9815,-1.9818,-1.982,-1.9765,-1.9761,-1.9757,-1.9679,0,0,-1.9743,-1.9741,0,0,0,0,0,0,0,0,-1.9894,-1.9887,-1.9835,-1.9835,-1.9835,-1.9803,-1.9797,-1.9742,-1.9812,-1.9821,-1.9818,-1.9821,-1.9774,-1.9769,-1.9754,-1.9677,-1.9674,-1.9742,-1.974,-1.9738,-1.9736,0,0,0,0,0,0,0,-1.9897,-1.9889,-1.9804,-1.9834,-1.9834,-1.9842,-1.9837,-1.9786,-1.9784,-1.9821,-1.9824,-1.9818,-1.9775,-1.9759,-1.9753,-1.9673,-1.9743,-1.9739,-1.9736,-1.9734,-1.9527,-1.9525,0,0,0,0,0,0,-1.99,-1.9892,-1.9806,-1.9803,-1.9872,-1.9838,-1.9833,-1.9811,-1.9785,-1.9783,-1.9816,-1.982,-1.9765,-1.9759,-1.9752,-1.9657,-1.9738,-1.9734,-1.9731,-1.953,-1.9527,-1.9524,0,0,0,0,0,0,-1.9903,-1.9892,-1.9808,-1.9848,-1.9838,-1.9833,-1.9808,-1.9809,-1.9793,-1.9781,-1.978,-1.98,-1.9767,-1.9758,-1.9697,-1.9656,-1.9732,-1.9727,-1.9533,-1.9529,-1.9525,-1.9469,0,0,0,0,0,0,-1.9906,-1.9893,-1.9865,-1.9847,-1.9835,-1.9755,-1.9806,-1.9806,-1.9785,-1.979,-1.9766,-1.9764,-1.9768,-1.9703,-1.9692,-1.9651,-1.9724,-1.9537,-1.9531,-1.9527,-1.9475,-1.9464,-1.9454,0,0,0,0,0,-1.991,-1.985,-1.9863,-1.9853,-1.9801,-1.9753,-1.9746,-1.9753,-1.9782,-1.9753,-1.9745,-1.9765,-1.9663,-1.9697,-1.9685,-1.9642,-1.9539,-1.9533,-1.9527,-1.9479,-1.9466,-1.9455,0,0,0,0,0,0,-1.9861,-1.9848,-1.9862,-1.9795,-1.9775,-1.9759,-1.9723,-1.9739,-1.9708,-1.9714,-1.9722,-1.9716,-1.9652,-1.9641,-1.9679,-1.9564,-1.9606,-1.9597,-1.9573,-1.9561,-1.9551,-1.9553,-1.972,0,0,0,0,0,-1.9843,-1.9807,-1.9797,-1.9739,-1.9728,-1.9727,-1.9706,-1.9714,-1.9692,-1.9683,-1.9671,-1.9648,-1.961,-1.9585,-1.955,-1.9474,-1.9468,-1.9439,-1.9428,-1.942,-1.9411,-1.9368,-1.9354,-1.9503,-1.9503,-1.9503,0,0,-1.9804,-1.9792,-1.9769,-1.9728,-1.9714,-1.9674,-1.9719,-1.9676,-1.9646,-1.9676,-1.9618,-1.9608,-1.9582,-1.9513,-1.9482,-1.9502,-1.9369,-1.9412,-1.9406,-1.9401,-1.936,-1.9346,-1.9333,-1.9499,-1.95,-1.95,0,0,-1.9712,-1.9701,-1.9651,-1.9635,-1.9613,-1.9613,-1.9601,-1.9583,-1.9578,-1.952,-1.9541,-1.9505,-1.9441,-1.9421,-1.9403,-1.9304,-1.932,-1.9293,-1.9238,-1.9196,-1.9184,-1.9173,-1.9135,-1.9122,-1.9284,-1.9284,-1.9284,0,-1.9666,-1.961,-1.9622,-1.9577,-1.9557,-1.9586,-1.9533,-1.9517,-1.9483,-1.9468,-1.9492,-1.9411,-1.9396,-1.9321,-1.9297,-1.9282,-1.9266,-1.9294,-1.9185,-1.9175,-1.9165,-1.9129,-1.9115,-1.9281,-1.9281,-1.9282,-1.9282,0,-1.9552,-1.9513,-1.9474,-1.9443,-1.942,-1.9371,-1.9374,-1.9348,-1.9358,-1.9354,-1.9294,-1.9277,-1.9238,-1.9222,-1.923,-1.9147,-1.916,-1.9185,-1.9225,-1.9147,-1.9113,-1.91,-1.9276,-1.9277,-1.9278,-1.9279,0,0,-1.9426,-1.9404,-1.9389,-1.9375,-1.9353,-1.9321,-1.9273,-1.9237,-1.9213,-1.919,-1.9147,-1.9093,-1.9115,-1.9094,-1.9101,-1.9064,-1.8984,-1.9093,-1.9092,-1.907,-1.8888,-1.8868,-1.8852,-1.8996,-1.8993,-1.8991,-1.889,0,-1.9332,-1.925,-1.926,-1.9181,-1.9143,-1.9169,-1.9127,-1.9107,-1.9103,-1.9068,-1.9063,-1.9023,-1.9057,-1.9044,-1.901,-1.9001,-1.8947,-1.9009,-1.8953,-1.8951,-1.8956,-1.8835,-1.8813,-1.8718,-1.8877,-1.8875,-1.8873,0,-1.921,-1.9184,-1.9101,-1.9084,-1.9068,-1.903,-1.8998,-1.8966,-1.8943,-1.8943,-1.8919,-1.8932,-1.8882,-1.8926,-1.8855,-1.8896,-1.8875,-1.8867,-1.8864,-1.8856,-1.8905,-1.8821,-1.8688,-1.8673,-1.8853,-1.8854,-1.8856,0,-1.9123,-1.9067,-1.901,-1.8997,-1.8976,-1.8949,-1.8938,-1.8919,-1.8896,-1.8867,-1.8852,-1.8817,-1.8797,-1.8768,-1.8771,-1.8803,-1.8697,-1.8742,-1.8692,-1.8692,-1.8666,-1.8667,-1.8524,-1.8657,-1.8657,-1.8657,-1.8658,0,-1.9015,-1.8962,-1.8971,-1.8935,-1.8876,-1.8888,-1.8829,-1.8822,-1.8804,-1.8766,-1.8787,-1.875,-1.8757,-1.8719,-1.8721,-1.866,-1.8651,-1.8647,-1.8647,-1.8643,-1.8643,-1.8627,-1.8632,-1.8654,-1.8655,-1.8655,-1.8656,0,-1.8906,-1.891,-1.8849,-1.8835,-1.8831,-1.8788,-1.8774,-1.874,-1.8738,-1.8689,-1.8678,-1.8674,-1.8631,-1.8632,-1.8582,-1.8583,-1.8507,-1.8517,-1.8515,-1.8516,-1.8465,-1.8468,-1.8304,-1.8282,-1.8432,-1.843,-1.8429,0,-1.8835,-1.8796,-1.8778,-1.8755,-1.8744,-1.8706,-1.8684,-1.8693,-1.8669,-1.864,-1.8608,-1.8568,-1.8535,-1.8465,-1.8456,-1.8418,-1.8425,-1.837,-1.8419,-1.8415,-1.842,-1.8421,-1.8416,-1.8359,-1.8357,-1.8356,-1.8355,0,-1.8708,-1.8712,-1.868,-1.8648,-1.8621,-1.8596,-1.8573,-1.8552,-1.8559,-1.853,-1.8488,-1.8463,-1.8413,-1.8371,-1.8335,-1.8322,-1.8337,-1.834,-1.8326,-1.832,-1.8319,-1.8316,-1.8486,-1.8343,-1.8344,-1.8345,-1.8346,-1.8346,-1.8614,-1.858,-1.8562,-1.8525,-1.8509,-1.8487,-1.8453,-1.8448,-1.8413,-1.8375,-1.8383,-1.8334,-1.8311,-1.8264,-1.8248,-1.8209,-1.8227,-1.8208,-1.8202,-1.8196,-1.8189,-1.8328,-1.8202,-1.8203,-1.8203,-1.8203,-1.8204,0,-1.8485,-1.8475,-1.8442,-1.841,-1.838,-1.8402,-1.8377,-1.835,-1.8308,-1.8287,-1.8255,-1.8205,-1.8165,-1.8154,-1.8114,-1.8084,-1.8091,-1.8073,-1.8074,-1.807,-1.8176,-1.8191,-1.8069,-1.8069,-1.8069,-1.8069,-1.8069,-1.8069,-1.8414,-1.8356,-1.8358,-1.8292,-1.8282,-1.8236,-1.822,-1.8199,-1.8182,-1.8126,-1.8093,-1.8087,-1.8069,-1.8029,-1.7992,-1.7989,-1.7972,-1.7951,-1.7951,-1.8049,-1.8063,-1.8076,-1.8089,-1.7948,-1.7948,-1.7848,-1.7847,-1.7847]}]]